Regional Weather Roundup
Issued by NWS

Home | Current Version | Previous Version | Graphics & Text | Print | Product List | Glossary On
Versions: 1 2 3 4 5 6 7 8 9 10 11 12 13 14 15 16 17 18 19 20 21 22 23 24 25 26 27 28 29 30 31 32 33 34 35 36 37 38 39 40 41 42 43 44 45 46 47 48 49 50
000
ASUS45 KSLC 241610
RWRUT

UTAH REGIONAL WEATHER ROUNDUP
NATIONAL WEATHER SERVICE SALT LAKE CITY UT
900 AM MST FRI FEB 24 2017

UTZ001>011-023>025-241700-

NORTHERN UTAH

CITY           SKY/WX    TMP DP  RH WIND       PRES   REMARKS
BRIGHAM CITY     N/A     25  21  85 CALM      30.04R
HILL AFB       LGT SNOW  23  19  86 W3        30.02R FOG
LOGAN          CLOUDY    26  21  81 CALM      30.01R
OGDEN          CLOUDY    20  19  96 CALM      30.02R
SALT LAKE CITY FLURRIES  27  19  72 W16G23    30.04R WCI  15
TOOELE VALLEY  PTSUNNY   27  25  93 SE5       30.07R WCI  21
WENDOVER       SUNNY     27   7  43 N12       30.07R WCI  16
HEBER CITY     LGT SNOW  18  12  79 CALM      29.96R
WEST JORDAN    CLOUDY    28  22  77 NW9       30.04R WCI  20

$$

UTZ011>015-024>027-241700-

CENTRAL/NORTHEAST UTAH

CITY           SKY/WX    TMP DP  RH WIND       PRES   REMARKS
PROVO AIRPORT  LGT SNOW  25  21  86 W7        30.05R FOG     WCI  17
MOAB/CANYONLAN CLOUDY    32  17  54 NE5       29.94R WCI  27
DELTA          PTSUNNY   18  18 100 SE5       30.05R WCI  11
PRICE          MOSUNNY   24  10  55 NW9       29.92R WCI  14
RICHFIELD      CLOUDY    19  19 100 CALM      30.05
ROOSEVELT      CLOUDY    21  18  86 CALM      29.95R
VERNAL         CLOUDY    20  16  84 CALM      29.93R

$$

UTZ013>016-019>022-027-241700-

SOUTHERN UTAH

CITY           SKY/WX    TMP DP  RH WIND       PRES   REMARKS
BRYCE CANYON   LGT SNOW  17   8  67 NW12      29.93R WCI   4
CEDAR CITY     SUNNY     24   7  48 W5        30.02R WCI  18
MILFORD        FLURRIES  22  20  92 CALM      30.04R
ST GEORGE      PTSUNNY   39  11  31 W14       30.11R WCI  31
HANKSVILLE     PTSUNNY   32  12  43 CALM      29.99R
KANAB          SUNNY     32  10  40 NW6G12    30.08R WCI  26
BLANDING       MOSUNNY   29  12  48 W8        29.98R WCI  22

$$

REGIONAL REPORTS     COLORADO/ARIZONA

CITY           SKY/WX    TMP DP  RH WIND       PRES   REMARKS
CRAIG, CO      LGT SNOW  17  11  77 W7        29.90R WCI   8
GRAND JUNCTION MOSUNNY   28  25  88 CALM      29.93R
RIFLE, CO      CLOUDY    26  19  74 NW3       29.90R
MONTROSE, CO   CLOUDY    26  15  63 NW10      29.93R WCI  16
CORTEZ, CO     SUNNY     26  15  63 VRB3      29.92R
COLORADO CITY    N/A     32  16  51 CALM      30.08R
PAGE, AZ       SUNNY     36   8  31 W10G18    30.00R WCI  28
GRAND CANYON   SUNNY     25   7  46 W7        30.01R WCI  17
KINGMAN, AZ    SUNNY     39   0  19 E5        30.11R
FLAGSTAFF, AZ  SUNNY     25   2  37 W8        30.00R WCI  16

$$

REGIONAL REPORTS    NEVADA/IDAHO/WYOMING

CITY           SKY/WX    TMP DP  RH WIND       PRES   REMARKS
LAS VEGAS, NV  MOSUNNY   42  14  32 CALM      30.14R
ELY, NY        PTSUNNY   14   7  73 S6        30.03R WCI   5
ELKO, NV       CLOUDY    23  12  62 S8        30.07R WCI  14
POCATELLO, ID  LGT SNOW  20  17  88 SW22      30.01R VSB 3/4 WCI   3
BURLEY, ID     MIX PCPN  25  14  63 SW20      30.02R WCI  11
FORT BRIDGER,  CLOUDY    14  13  92 W13       29.90R WCI   0
EVANSTON, WY   CLOUDY    13   7  77 W13       29.88R WCI  -2
ROCK SPRINGS,  LGT SNOW  14  11  87 SW5       29.88R FOG     WCI   6

$$



USA.gov is the U.S. government's official web portal to all federal, state and local government web resources and services.